Theta_e
320 322 325 327 328 328 333 334 333 340 333 330 336 331 329 332 326 320 321 318 321 323 321 323 325 324 324 327 330 330 329 331 333 332 334 329 320 325 327 325 328 327 327 325 325 330 333 334 334 335 336 335 335 334 335 335 336 335 336 337 337 337 336 337 337 336 337 336 337 336 335 335 335 335 335 334 333 332 332 332 332 331 331 332 333 333 333 334 335 334 333 332 331 331 331 331 331
322 326 328 327 328 328 337 340 336 338 335 332 333 330 332 330 321 321 323 321 324 322 322 324 324 324 324 327 326 326 326 324 326 328 324 319 320 325 325 325 326 326 326 325 324 325 328 332 332 333 334 333 333 333 334 334 334 335 334 335 334 334 335 335 335 335 335 334 334 334 334 334 333 333 333 331 331 330 329 328 328 327 327 328 329 329 328 328 329 329 328 327 326 325 325 324 325
323 328 329 327 329 331 340 341 338 333 327 328 329 331 329 323 325 329 327 324 325 323 323 323 321 323 323 324 322 324 326 320 319 320 317 317 321 324 325 325 324 325 325 324 324 323 325 328 330 332 332 332 331 331 332 332 332 333 333 333 333 333 333 334 334 334 333 332 332 332 332 332 331 330 329 327 326 325 324 323 323 323 323 324 324 325 324 323 323 323 322 319 316 315 315 315 315
325 329 328 329 335 340 344 339 343 336 325 328 329 334 329 326 335 332 328 326 324 321 321 321 320 319 321 325 321 323 328 323 318 318 319 317 320 324 324 324 324 324 324 325 324 322 324 325 327 329 330 329 329 330 330 330 330 329 330 330 330 330 330 331 331 331 330 330 329 329 329 328 327 325 323 321 319 317 315 314 315 316 316 317 319 319 318 316 315 314 312 309 306 305 305 305 306
325 329 325 329 338 342 341 334 339 334 328 333 331 337 334 332 335 327 325 324 321 321 321 321 321 318 318 322 321 324 328 325 318 314 318 317 320 324 322 323 323 324 325 325 324 321 321 323 325 325 325 324 325 328 328 328 328 327 327 327 327 327 327 328 327 328 327 326 325 324 323 322 320 318 316 313 310 308 306 305 305 306 307 308 309 311 310 308 306 304 303 301 300 299 300 299 300
325 326 326 326 329 333 336 332 334 332 330 334 332 338 335 330 328 324 322 320 320 321 319 320 321 321 320 319 318 321 323 322 318 314 317 318 320 323 322 321 322 324 325 324 324 321 318 321 323 323 323 323 325 326 326 327 327 326 326 326 326 326 326 326 325 325 323 321 318 316 314 312 310 308 307 305 303 302 301 300 300 300 300 300 301 303 303 301 300 299 298 298 298 298 298 298 298
324 326 331 329 326 331 337 336 336 337 333 330 332 332 329 328 324 322 321 319 320 318 318 320 320 321 321 318 317 317 315 317 317 316 317 318 321 322 321 321 322 324 324 324 324 320 317 319 320 323 324 324 325 325 326 326 325 325 325 325 324 323 322 321 320 318 316 312 309 307 305 303 303 302 301 300 300 299 298 298 298 298 298 298 298 298 299 298 297 297 297 297 297 297 297 297 297
323 326 332 336 333 330 332 332 332 334 331 326 328 326 326 329 322 321 322 320 319 319 319 320 319 320 319 317 322 318 313 316 315 316 317 318 321 321 321 320 322 323 324 324 323 319 316 319 321 323 324 324 325 324 323 322 321 320 319 318 317 316 314 313 311 309 306 304 302 301 300 299 299 299 299 298 298 298 298 297 297 297 297 297 297 297 299 299 298 297 296 297 297 297 297 297 297
323 323 325 332 330 327 331 330 327 328 328 324 322 323 327 326 319 321 324 320 319 320 320 321 320 318 318 318 323 317 313 316 315 316 317 319 321 321 320 320 322 322 323 322 321 319 316 320 322 322 322 323 323 320 317 314 313 312 310 309 308 307 306 305 303 302 301 300 299 299 299 298 298 298 298 297 297 297 297 297 297 297 296 297 297 298 300 301 299 296 296 296 296 296 296 296 296
325 324 324 330 327 325 329 328 327 329 329 326 322 322 326 323 318 320 323 322 320 321 320 320 318 316 319 321 324 318 314 316 314 316 316 319 320 320 320 319 321 321 321 321 319 318 317 321 321 321 321 320 317 313 310 309 307 306 305 304 303 303 302 301 300 300 299 299 298 298 298 297 297 297 297 297 297 297 297 296 296 296 296 296 296 297 298 298 298 296 296 296 296 296 296 296 296
330 330 329 328 327 326 326 328 330 330 327 326 322 320 323 321 319 320 321 320 320 320 319 317 318 320 318 321 325 317 312 314 314 315 316 319 319 319 319 318 319 320 319 319 318 317 318 320 319 319 318 315 310 309 307 305 304 303 303 302 301 301 300 300 299 298 298 298 298 298 297 297 297 297 297 297 297 297 296 296 296 296 296 296 296 296 296 296 296 295 295 295 296 298 298 297 296
330 335 336 328 329 331 329 332 330 328 328 326 322 320 321 319 318 321 321 320 320 320 320 317 319 320 318 322 321 312 310 313 314 315 317 318 318 317 317 317 318 318 318 318 317 316 318 318 318 316 313 309 307 306 304 303 303 302 301 301 300 299 299 298 298 298 298 298 298 298 298 297 297 297 297 297 296 296 296 296 296 295 295 295 295 295 295 295 295 295 295 295 296 297 298 297 297
329 335 335 329 334 333 327 332 333 329 331 331 324 318 318 318 319 323 323 320 321 321 321 319 318 317 319 323 316 309 310 312 314 314 317 316 315 314 314 316 316 317 317 318 317 315 316 317 316 314 309 307 305 304 303 303 302 301 300 299 298 298 298 298 298 298 298 298 298 298 298 298 297 297 297 297 297 296 296 296 296 295 295 295 295 295 295 295 295 295 295 295 295 295 295 296 296
326 333 331 327 332 332 327 329 332 327 327 333 324 318 319 318 320 323 322 320 321 321 319 317 317 318 319 320 319 317 312 311 313 313 316 314 311 311 313 315 315 316 316 317 316 314 315 314 313 310 307 305 304 303 302 301 300 300 299 298 298 298 298 298 298 298 298 298 298 298 298 298 297 297 297 297 297 297 296 296 296 296 296 296 296 296 295 295 295 295 295 295 295 294 294 295 295
323 335 330 326 329 328 326 326 327 322 325 332 322 318 320 318 319 320 321 320 321 318 315 314 315 317 319 318 325 324 313 311 312 312 313 310 308 310 312 314 314 314 314 314 314 313 312 312 310 307 305 304 303 302 301 300 299 298 298 297 297 297 297 297 297 297 298 298 298 298 298 298 297 297 297 297 297 297 297 297 297 296 296 296 296 296 296 296 296 296 295 295 295 295 294 294 294
329 338 328 325 329 325 324 327 325 322 328 332 320 317 319 319 318 318 318 317 319 316 315 318 314 315 319 319 320 316 311 312 311 310 310 307 306 308 310 312 312 312 312 312 312 311 310 309 308 305 304 303 302 301 300 299 298 298 297 297 297 297 297 297 297 297 297 297 297 297 297 297 297 297 297 297 297 297 297 297 296 296 296 295 295 295 295 295 295 294 294 294 294 294 294 294 294
334 333 325 325 329 325 326 328 322 321 329 330 321 317 318 320 318 315 313 313 318 317 317 319 314 313 316 316 313 310 311 311 309 308 306 305 305 306 308 310 310 310 310 310 310 309 309 308 306 304 303 302 302 301 299 298 298 297 297 297 297 297 297 297 297 297 297 297 297 297 297 297 297 297 297 296 297 296 296 296 295 295 295 295 294 294 294 294 294 294 294 294 294 294 294 294 294
331 326 322 323 327 327 331 331 323 319 323 323 321 319 318 320 320 316 313 315 318 316 317 318 315 312 310 309 309 309 310 308 307 305 303 303 304 304 305 306 307 308 308 308 308 308 307 307 306 303 302 302 302 300 298 298 297 297 297 297 297 297 297 297 297 297 297 297 297 297 296 297 296 296 296 296 296 295 295 295 295 294 294 294 294 294 293 294 293 293 294 294 294 294 294 294 294
329 329 323 326 331 330 330 328 321 318 318 320 322 320 318 319 319 315 315 320 318 317 318 317 317 315 310 307 306 308 307 306 305 304 303 302 302 303 303 304 305 305 306 306 306 305 305 306 306 303 302 302 301 299 298 297 297 297 297 297 297 297 297 296 297 297 296 296 296 296 296 296 296 296 295 295 295 295 295 294 294 294 294 294 294 294 293 294 294 294 294 294 294 294 294 294 294
329 328 324 332 333 327 327 324 320 320 318 320 321 318 317 319 317 314 316 320 319 318 318 317 318 318 316 308 304 306 305 304 303 303 302 302 302 302 302 303 303 304 304 305 304 304 303 303 304 303 301 301 300 298 297 297 297 297 297 297 297 296 296 296 296 296 296 296 296 296 296 296 295 295 295 295 294 294 294 294 294 294 294 294 294 294 294 294 293 294 294 294 294 294 294 294 293
326 323 325 334 327 323 325 323 321 321 318 318 320 316 317 318 316 315 317 317 317 318 316 317 319 318 317 309 303 304 304 303 302 302 302 302 302 302 303 303 303 304 303 303 303 303 302 301 302 302 301 300 299 297 296 297 297 296 296 296 296 296 296 296 296 296 296 296 296 296 295 295 294 295 295 294 294 294 294 294 294 294 294 294 294 294 294 294 294 294 294 294 294 294 294 294 293
323 322 324 327 322 320 321 322 322 321 318 317 319 317 316 316 315 317 317 316 316 317 317 316 317 317 316 310 305 303 303 303 302 302 302 301 302 302 302 303 303 302 302 302 303 303 302 300 300 300 300 299 298 296 296 297 297 296 296 296 296 296 296 296 295 296 296 295 295 295 295 294 294 294 294 294 294 294 294 294 294 294 294 294 294 294 294 294 294 293 293 293 293 293 294 293 293
322 323 321 321 319 318 319 320 320 320 317 316 317 316 316 316 317 318 317 316 315 318 321 318 316 314 311 308 305 305 305 303 302 302 302 302 301 301 302 302 302 302 302 302 302 302 301 300 299 299 299 298 297 296 296 296 297 296 296 296 296 296 295 295 295 295 295 295 295 295 295 294 294 294 294 294 294 294 294 294 294 294 294 294 294 294 294 294 293 293 293 293 293 294 294 293 293
321 322 321 320 319 318 318 318 318 319 317 316 316 314 315 317 317 317 316 315 314 316 320 320 315 308 308 308 307 306 306 304 303 303 302 302 302 303 303 302 302 302 302 301 301 301 301 300 299 299 299 298 297 297 296 296 297 296 296 296 296 296 295 295 295 295 295 295 295 295 294 294 294 294 294 294 294 294 294 295 295 295 295 295 295 294 294 294 294 294 294 294 294 294 294 293 293
321 322 321 319 318 319 318 317 317 318 317 315 314 314 316 316 315 314 315 314 313 314 316 318 315 310 311 311 308 307 306 304 303 303 303 303 303 303 303 302 302 302 301 301 301 301 301 300 300 299 299 299 298 297 296 296 296 296 296 296 296 295 295 295 295 295 294 294 294 294 294 294 295 295 295 295 295 295 295 295 295 295 295 295 294 294 294 294 294 294 294 294 294 294 293 293 293
322 321 320 318 318 318 317 317 317 317 317 315 314 316 316 314 314 314 315 314 313 314 315 315 315 315 315 312 308 307 307 306 303 303 303 303 303 303 303 303 302 302 303 302 301 301 301 300 300 300 299 299 298 297 297 296 296 296 295 296 296 295 295 295 294 294 294 294 294 294 295 295 295 295 295 295 295 295 296 296 295 295 295 295 295 295 295 294 294 294 294 293 293 293 293 293 292
319 317 318 317 316 316 315 316 316 314 316 316 315 316 316 314 313 315 316 316 315 316 315 313 313 314 313 311 309 306 307 306 304 304 304 303 303 303 303 303 302 303 303 302 302 302 301 300 300 300 299 299 298 298 297 296 296 295 296 295 295 295 295 294 294 294 294 294 294 295 295 295 295 295 295 296 296 296 296 296 295 296 296 296 296 295 295 294 294 294 293 293 293 293 292 292 292
316 315 317 317 316 316 315 315 316 314 315 317 315 315 315 313 313 315 315 316 316 316 317 316 313 313 312 311 310 307 306 306 305 304 304 303 303 303 303 303 303 303 303 303 303 302 301 301 301 300 300 299 299 298 297 297 296 295 295 295 295 295 295 294 294 294 293 294 294 295 295 295 294 294 295 296 296 296 297 296 296 296 296 296 296 295 294 294 293 293 293 293 292 292 292 292 292
315 315 316 317 317 316 315 315 316 314 315 317 315 315 317 316 315 316 314 315 315 315 317 317 315 313 311 311 310 309 307 305 305 304 304 305 305 305 304 305 305 304 304 304 303 302 302 301 300 300 300 299 299 299 298 297 296 295 295 295 295 295 295 294 294 294 294 294 294 295 295 295 295 295 295 295 296 296 297 297 297 297 296 296 295 295 294 293 293 293 292 292 292 292 292 292 292
315 315 315 316 316 318 316 316 316 315 315 317 315 316 321 320 316 315 314 313 313 315 315 314 314 313 311 311 310 309 308 306 305 304 305 306 306 306 305 306 305 304 304 303 302 303 303 302 301 300 300 299 299 299 298 297 296 295 295 295 295 295 296 295 294 294 294 294 294 294 294 295 294 294 295 295 295 296 296 297 296 296 296 295 295 294 294 293 292 292 292 292 292 292 292 292 292
316 314 316 317 316 318 316 315 316 315 315 315 315 317 319 319 317 316 315 314 314 316 317 314 312 312 311 311 310 310 309 307 305 305 306 306 306 306 306 306 305 305 304 303 303 304 303 302 301 300 300 300 299 299 299 298 296 295 295 296 296 296 296 295 294 294 294 294 294 294 294 294 294 294 294 295 295 296 296 296 296 296 295 295 294 294 294 293 292 292 292 292 292 292 292 291 291
321 315 317 321 318 317 316 315 316 315 315 312 315 318 317 316 316 316 315 315 315 316 317 316 313 312 311 311 310 311 310 307 305 306 306 306 306 306 306 306 306 305 305 304 304 303 302 302 301 301 300 300 299 299 299 298 296 295 296 296 296 296 295 295 295 294 294 294 294 294 294 294 294 294 294 294 295 296 296 296 296 295 295 294 294 294 293 293 292 292 292 292 292 292 292 291 291
326 317 316 321 319 316 316 318 318 316 315 313 314 318 318 317 317 318 316 314 314 315 315 314 313 313 311 310 310 310 311 309 307 306 306 306 306 306 306 307 307 306 306 305 304 303 302 302 301 301 301 300 300 299 299 298 297 296 296 297 297 297 296 295 295 295 294 294 294 294 294 294 294 294 294 294 295 295 295 295 295 295 294 294 294 294 293 293 292 292 292 292 291 291 291 291 290
322 317 317 319 318 315 316 319 319 316 315 315 314 314 316 317 318 320 318 314 314 314 315 314 313 312 312 312 311 310 310 311 311 308 307 307 307 307 307 307 307 307 306 305 304 303 303 302 302 301 301 301 300 299 299 298 297 297 297 297 297 297 297 296 296 296 295 294 294 294 294 294 294 294 294 294 294 294 294 295 294 294 294 294 294 293 293 292 292 292 291 291 291 291 291 290 290
317 318 319 319 318 315 315 316 316 315 315 316 315 314 314 314 314 316 315 314 313 314 314 313 313 312 312 312 311 311 310 310 311 309 308 308 307 307 307 307 307 306 306 305 304 303 303 302 301 301 300 300 300 299 299 298 297 297 297 297 298 298 297 297 296 296 295 294 294 294 294 294 294 293 293 294 294 294 294 294 294 294 294 293 293 293 292 292 292 291 291 291 290 290 290 290 289
316 316 316 317 316 314 314 314 314 316 315 315 316 314 314 313 313 313 313 313 313 313 312 312 311 312 311 312 312 312 311 311 310 308 309 309 307 308 307 307 307 307 306 305 303 302 302 301 300 300 300 300 299 299 298 298 297 297 297 297 297 297 297 296 296 295 295 294 294 293 294 294 293 293 293 293 293 293 294 293 293 293 293 293 292 292 292 292 292 291 290 290 290 289 289 289 289
314 314 314 315 314 312 312 312 313 315 314 315 316 315 314 314 313 313 313 313 313 313 313 312 311 310 311 312 312 312 312 312 310 309 309 309 308 308 308 307 307 306 305 304 303 302 301 301 300 299 299 299 299 298 298 297 297 297 297 297 297 297 296 296 295 295 295 294 294 293 293 293 293 293 293 293 293 293 293 293 293 293 292 292 292 292 292 292 291 290 290 289 289 289 288 289 289
313 314 315 314 314 313 312 312 313 314 314 314 315 315 314 313 314 313 313 313 313 313 313 313 312 311 311 311 311 312 312 312 312 311 308 307 308 308 307 307 306 305 305 304 303 302 301 300 300 300 299 299 299 299 298 298 298 297 297 297 296 296 296 295 295 295 294 294 294 293 293 292 293 292 293 293 293 293 292 292 292 292 292 291 291 291 291 291 290 290 290 289 289 288 288 288 288
314 314 315 315 314 313 313 314 315 313 313 317 318 315 313 313 313 312 313 313 313 313 313 313 313 313 312 311 312 311 312 312 312 313 310 306 305 306 306 305 306 306 305 304 303 302 301 300 300 299 299 299 299 299 299 298 298 297 297 297 296 296 296 296 295 295 294 294 294 293 293 292 292 292 292 292 292 292 292 292 292 292 292 291 291 291 291 290 290 290 289 289 288 288 287 287 287
314 315 315 315 314 314 314 316 319 315 314 320 320 315 312 313 313 313 312 312 312 313 312 313 313 313 313 312 313 312 312 313 312 313 313 308 304 304 304 304 305 305 304 303 302 301 300 299 299 299 299 299 299 298 298 298 297 297 296 296 296 296 295 295 295 294 294 294 293 293 293 292 291 291 291 291 292 291 291 291 291 291 291 291 291 291 291 290 290 290 289 289 288 288 287 286 287
315 315 315 314 314 315 314 315 319 316 315 318 317 314 314 314 314 313 313 313 312 312 312 312 312 313 313 313 313 313 313 313 313 313 314 314 310 304 303 304 304 303 303 302 301 301 300 299 299 299 299 298 298 298 298 297 297 296 295 295 295 295 294 294 293 293 293 293 293 293 293 292 291 291 291 291 291 291 291 291 291 291 291 291 291 291 291 290 289 289 289 289 288 288 287 286 286
314 316 316 315 315 315 315 316 316 316 319 319 317 317 317 318 318 315 314 315 314 314 313 313 313 313 313 313 313 314 313 313 314 313 314 316 312 304 301 303 303 302 303 303 302 301 300 299 299 299 298 298 298 298 297 297 296 296 295 294 294 294 293 293 293 293 293 293 293 293 293 292 292 291 291 291 290 290 290 290 290 290 290 290 290 290 290 289 289 289 288 288 288 288 288 287 286
315 321 321 316 315 316 316 317 316 319 323 319 317 319 319 319 321 320 318 318 316 316 315 314 313 313 313 313 313 313 313 313 314 314 314 315 312 306 303 302 302 303 303 302 302 301 300 299 299 299 298 298 297 297 297 297 296 296 295 295 295 294 293 293 294 293 293 293 292 292 292 292 292 291 291 290 290 290 290 289 289 289 289 290 290 289 289 289 289 288 288 288 287 287 288 287 286
317 324 327 322 320 320 318 318 319 321 322 319 319 321 320 319 320 322 322 321 318 318 318 316 313 313 313 313 312 312 313 313 314 315 315 314 312 309 305 302 302 303 303 302 301 300 300 299 299 298 298 298 297 297 297 296 296 296 295 295 295 294 294 294 293 293 293 292 292 292 292 292 292 291 291 290 290 289 289 289 289 289 289 289 289 289 289 289 288 287 287 287 287 287 287 287 286
319 322 324 324 323 322 320 319 322 321 320 319 320 321 321 319 318 320 319 318 319 318 318 317 315 314 313 313 313 313 313 313 314 316 315 315 311 306 303 302 302 303 302 302 301 300 300 299 299 298 298 297 297 297 297 296 296 296 295 295 295 295 294 294 293 293 292 292 292 292 292 291 291 291 291 290 290 289 289 288 288 288 288 288 289 289 288 288 287 287 287 287 287 287 287 286 286
319 321 322 325 328 327 323 321 321 322 321 320 322 321 320 320 319 319 317 316 319 317 315 315 315 315 314 314 314 313 314 314 315 315 315 313 308 303 303 303 302 302 302 302 301 300 299 299 298 298 297 297 297 297 296 296 296 296 295 295 295 294 294 293 293 293 292 292 291 291 291 291 291 291 290 290 290 289 288 288 288 288 288 288 288 288 288 287 287 287 287 286 286 286 286 286 286
317 321 326 327 330 329 329 328 322 320 320 321 324 322 319 319 318 319 318 319 319 315 315 316 314 314 315 313 313 313 313 314 315 316 316 312 305 302 302 302 301 301 301 301 300 299 299 298 298 298 297 297 297 296 296 296 296 295 295 295 295 294 294 293 292 292 292 291 291 291 291 291 290 290 290 290 290 289 288 288 287 288 288 288 288 288 288 287 287 286 286 285 285 285 285 285 285
317 324 326 324 326 327 328 328 323 320 321 322 325 321 318 319 318 317 319 320 318 314 315 318 316 318 319 316 313 313 314 313 314 318 320 315 307 304 302 300 300 300 300 300 299 299 299 298 298 298 297 297 297 296 296 296 296 296 295 295 295 294 294 293 293 292 292 291 291 290 290 290 290 290 290 290 290 289 288 288 287 287 287 287 288 288 287 287 287 286 285 285 285 285 285 285 285
318 323 322 320 323 323 322 324 323 321 321 322 322 318 317 318 317 316 316 319 319 316 315 316 318 322 324 320 315 313 314 313 314 318 321 316 310 308 304 300 298 298 298 299 299 299 299 298 298 298 297 297 297 296 296 296 296 296 295 295 295 294 294 294 293 293 292 291 291 290 290 290 289 289 289 289 290 289 289 288 287 287 287 287 287 287 287 286 286 286 285 285 285 285 285 285 284
317 320 321 321 322 322 321 325 324 320 320 320 316 316 318 319 320 318 315 314 317 317 315 315 316 320 322 321 316 314 315 314 314 319 322 316 310 308 305 300 298 298 298 298 298 298 298 298 298 298 298 297 297 297 296 296 296 296 296 295 295 294 294 294 293 293 292 292 291 291 290 290 289 289 289 290 290 289 289 288 288 287 287 287 287 287 286 286 286 285 285 285 285 285 284 284 284
315 318 323 320 324 327 325 326 323 318 323 322 314 318 322 319 319 321 317 315 316 316 315 314 313 314 317 317 315 315 315 314 318 323 323 316 310 308 304 299 298 298 298 298 298 298 297 297 297 297 297 297 297 297 296 296 296 296 295 295 295 294 294 294 293 293 292 292 291 291 291 290 290 290 290 290 290 289 289 288 288 287 287 287 287 286 286 286 285 285 285 285 285 284 284 283 283
316 320 323 318 322 326 320 322 322 316 321 321 316 320 323 318 316 318 318 317 317 316 314 313 313 313 314 314 314 315 313 314 322 327 323 315 310 307 303 299 299 299 298 298 297 297 297 297 297 297 297 297 297 297 296 296 296 295 295 295 295 294 294 294 293 293 292 292 291 291 291 290 290 290 290 290 289 289 289 288 288 287 287 287 286 286 286 285 285 285 284 284 284 284 284 283 283
316 317 320 317 319 322 317 321 323 316 316 319 318 320 320 317 317 317 316 315 315 316 316 315 315 313 313 313 313 314 312 315 323 326 321 314 311 308 302 299 299 299 298 298 298 298 298 297 297 297 297 297 297 297 297 296 296 295 295 295 295 294 294 294 294 293 292 292 291 291 291 290 290 290 290 290 290 289 289 288 288 287 287 286 286 286 285 285 285 284 284 284 284 284 283 283 282
318 319 318 316 317 320 320 322 324 319 318 319 319 318 316 316 320 321 318 316 315 319 317 314 314 312 311 312 313 313 313 318 324 325 321 315 312 310 303 299 300 299 299 299 298 299 298 298 297 297 297 297 297 297 297 296 296 295 295 295 294 294 294 294 293 293 292 291 291 291 291 290 290 290 290 290 290 289 289 288 287 287 286 286 286 285 285 285 284 284 284 284 284 283 283 282 282
318 320 317 317 319 321 321 321 321 319 319 319 317 317 315 316 319 320 317 317 317 317 314 313 314 314 313 312 312 313 313 319 325 327 322 315 313 311 304 300 300 300 300 300 299 298 298 298 298 297 297 298 297 297 296 296 296 295 295 295 294 294 294 293 293 293 292 292 291 291 290 290 290 290 290 290 289 289 289 288 287 287 286 286 285 285 284 284 284 284 284 283 282 282 282 282 281
313 314 314 315 317 320 321 321 321 320 318 319 318 318 317 319 322 319 316 316 317 315 315 316 318 316 313 312 313 314 314 317 323 326 322 316 313 310 304 300 300 300 300 300 299 298 298 298 298 297 297 297 297 296 296 296 296 295 295 295 294 294 294 293 293 292 292 292 291 291 290 290 290 290 289 289 289 289 289 288 287 287 286 286 285 285 284 284 283 283 283 282 282 281 281 281 281
314 314 315 313 313 318 319 317 319 319 318 318 319 319 317 318 321 318 314 315 315 315 315 318 320 316 312 312 313 313 314 316 320 323 321 317 314 309 303 301 301 301 300 300 299 299 298 298 298 298 297 297 296 296 296 296 296 296 295 295 294 294 293 293 292 292 292 291 291 291 290 290 290 289 289 289 289 289 288 288 287 287 286 286 285 284 284 283 283 283 282 282 281 281 281 281 281
317 316 316 315 314 318 318 316 318 318 317 318 318 319 319 317 316 314 314 316 318 320 319 319 323 320 316 317 315 313 314 316 317 316 316 316 314 310 304 302 301 301 300 299 299 298 298 298 298 297 297 297 297 297 296 296 296 295 295 295 294 294 293 293 292 292 292 291 291 291 290 290 290 289 289 289 289 289 288 288 287 287 286 285 285 284 284 283 283 282 281 281 281 281 281 281 280
Wind_Speed
2 3 1 1 2 2 2 3 2 3 2 1 3 1 5 5 3 3 1 3 1 2 3 1 2 2 2 4 6 6 4 5 5 5 3 4 14 20 20 19 21 22 21 20 19 19 20 18 16 15 14 14 13 13 12 11 11 11 12 12 12 11 10 10 10 9 9 9 9 8 7 7 7 7 7 7 6 4 3 2 2 2 3 4 5 4 3 4 4 2 3 4 4 3 3 3 3
1 2 1 1 3 2 1 3 2 4 4 3 4 3 5 4 1 5 6 6 4 4 3 2 6 6 5 6 6 4 1 1 2 4 2 9 15 18 21 20 21 21 21 19 18 18 19 19 17 16 14 14 13 13 13 12 11 11 11 10 10 9 9 9 9 9 8 8 8 7 6 6 7 7 5 3 3 2 2 2 2 1 2 3 5 4 3 3 4 3 3 3 3 3 3 3 3
1 2 2 0 2 3 1 3 2 1 2 3 5 4 3 2 4 7 7 7 7 5 4 3 4 5 5 4 2 3 2 1 2 3 2 12 14 19 25 21 22 20 20 19 18 18 18 18 17 16 15 15 14 14 14 14 12 11 11 10 10 10 9 9 9 8 8 8 7 7 7 7 7 6 4 2 2 2 2 2 3 3 2 3 3 3 3 3 3 3 3 3 3 3 3 3 4
2 1 3 2 2 3 4 2 1 4 1 3 3 6 3 4 7 6 7 7 6 3 3 3 2 1 4 1 2 2 3 2 5 7 4 16 19 24 29 22 23 20 20 20 18 18 18 19 18 17 15 15 16 15 15 14 13 12 12 11 11 11 11 10 9 9 8 8 8 7 7 6 5 4 3 3 3 3 3 3 4 4 4 4 3 3 3 3 3 3 3 4 4 4 4 4 4
2 1 2 3 2 1 3 1 2 4 4 4 2 6 5 6 7 6 5 5 5 3 3 4 2 2 1 2 3 1 5 2 6 11 8 19 23 28 29 24 24 22 21 20 18 18 19 20 19 18 17 16 16 15 15 15 14 14 13 13 12 12 11 11 11 11 10 9 9 7 7 6 6 5 5 4 4 4 4 4 5 4 4 4 3 3 3 3 3 3 4 4 5 5 5 5 5
1 1 2 3 2 1 2 1 2 3 5 5 3 7 7 6 7 6 3 5 5 3 4 3 3 3 0 1 1 2 5 1 5 11 11 21 27 30 29 24 25 23 23 21 19 19 20 21 19 19 18 17 16 15 15 14 15 14 14 14 13 13 13 13 12 12 11 10 9 8 8 7 7 6 6 5 4 4 4 4 4 4 4 4 3 3 3 3 4 4 5 5 5 5 6 6 5
3 2 2 3 1 2 3 3 4 4 5 6 5 7 8 6 6 4 3 3 2 2 1 3 3 5 1 1 1 3 3 3 6 6 12 25 32 32 28 25 25 24 23 21 20 20 21 21 19 20 18 17 16 15 15 15 15 14 14 14 14 14 13 13 12 12 11 10 9 9 9 8 8 7 7 6 5 5 4 5 5 5 5 5 5 4 5 6 6 6 6 7 7 7 7 7 7
3 1 1 3 1 2 3 3 4 4 4 5 5 7 8 8 7 5 6 4 1 2 1 3 2 3 3 1 1 4 3 7 5 5 16 29 34 34 30 27 27 26 24 23 21 21 21 20 20 20 19 18 17 16 16 15 15 14 14 14 13 13 13 12 12 12 11 10 10 9 9 9 8 8 7 7 6 6 7 7 7 7 8 7 7 7 7 7 7 7 7 7 7 8 8 8 8
3 1 1 3 2 1 0 3 4 4 5 6 6 7 6 6 7 5 6 4 2 3 4 5 4 2 3 2 3 5 3 9 6 9 23 32 36 36 32 30 29 28 26 24 23 22 22 21 20 20 20 18 17 16 16 16 15 14 14 13 13 12 12 12 11 11 10 10 9 9 9 9 9 9 8 8 8 8 8 8 8 8 8 8 8 8 8 8 8 7 7 8 8 8 8 8 9
3 2 1 1 2 1 4 3 4 4 6 6 7 9 6 6 7 5 5 5 3 4 4 3 1 2 3 4 4 3 4 9 10 17 26 32 36 35 33 30 29 29 27 25 24 24 24 23 21 20 19 18 17 17 16 16 15 14 14 13 13 13 12 12 12 11 11 10 10 10 10 10 10 10 10 9 10 9 9 8 9 8 8 8 8 8 8 8 7 7 7 8 8 8 8 8 8
2 3 2 2 2 2 4 4 5 5 6 5 6 7 6 7 6 3 3 4 3 3 3 1 1 3 3 2 3 2 5 12 17 24 28 33 34 33 33 29 28 27 26 25 24 25 25 24 22 20 19 18 18 17 16 16 15 15 14 14 14 13 13 12 12 12 12 12 11 11 11 11 11 10 10 10 10 9 9 8 8 8 8 8 8 8 7 8 7 7 7 8 8 8 8 8 7
2 3 3 3 2 3 4 3 5 6 7 5 5 5 5 8 5 4 5 4 3 2 4 5 4 5 2 4 3 3 7 18 20 25 30 33 33 31 31 28 27 26 25 24 24 25 25 24 23 21 20 19 19 18 18 17 17 16 15 15 14 14 14 13 14 13 13 13 13 12 12 12 11 11 10 9 9 9 9 9 9 8 9 9 9 8 8 8 8 8 8 8 7 7 7 7 7
2 1 4 2 3 3 3 3 5 5 6 4 5 3 5 8 5 7 7 4 4 4 6 8 4 4 4 4 3 3 7 20 22 25 31 33 31 29 29 27 26 25 25 24 24 24 24 24 23 22 21 20 20 19 19 19 18 17 16 15 15 15 15 15 15 15 15 14 14 13 13 12 12 11 10 10 9 9 9 9 9 9 9 9 9 9 9 9 9 9 9 8 7 7 6 6 6
2 2 4 1 1 1 3 3 4 3 5 6 4 2 3 4 5 6 7 4 7 6 5 7 6 3 3 2 2 3 10 22 24 27 32 31 29 27 27 28 26 26 25 25 25 25 25 24 24 23 23 22 22 21 20 19 18 17 17 16 16 16 16 16 16 16 15 15 14 14 13 13 12 12 11 10 9 9 9 9 9 9 9 9 9 9 9 9 9 9 9 8 8 8 7 7 7
2 1 4 1 2 2 3 4 4 3 4 5 3 0 1 3 2 3 6 6 8 5 1 3 6 2 4 5 5 6 16 27 27 29 32 29 26 25 27 27 26 26 26 25 25 25 26 25 25 25 24 24 23 22 21 19 19 18 17 17 17 17 17 17 17 16 16 16 15 15 15 14 13 12 12 11 11 10 10 10 10 9 9 9 8 8 8 8 8 8 8 8 8 8 8 8 8
2 3 4 1 2 2 3 4 2 2 5 5 3 1 0 6 1 3 5 4 3 3 2 4 5 2 5 8 5 6 20 31 28 29 30 26 24 24 25 26 26 26 26 26 26 27 27 27 26 26 25 25 24 22 21 20 19 18 17 18 18 18 18 18 17 17 16 16 16 16 16 15 15 14 13 13 12 12 11 11 10 10 9 9 9 8 8 8 9 9 9 9 9 8 8 8 8
3 4 2 2 2 2 4 4 2 2 5 6 5 1 4 7 3 2 2 2 1 2 2 5 3 1 3 4 4 5 25 32 30 30 27 25 24 23 24 26 27 27 28 28 28 28 28 29 29 28 28 27 25 23 21 20 19 19 19 19 19 19 19 18 18 18 17 17 17 17 17 16 16 16 15 14 14 13 12 11 11 11 9 9 9 9 9 9 9 9 9 9 9 9 9 9 9
3 3 2 3 3 4 5 6 5 3 3 5 4 3 7 5 4 1 1 1 2 3 4 4 3 2 2 0 4 16 30 33 32 31 27 24 23 23 24 27 29 30 30 30 30 30 30 31 31 31 30 29 26 24 22 21 21 21 21 21 21 20 20 20 19 19 19 19 18 18 18 18 17 17 16 15 14 14 12 12 12 11 10 9 9 9 9 9 9 9 9 9 10 10 9 9 9
2 3 2 4 6 5 5 5 4 2 4 5 5 4 6 7 4 1 2 5 3 4 6 4 5 4 3 5 13 24 31 32 32 31 28 26 26 26 26 27 30 31 33 34 34 33 33 34 34 34 32 30 28 26 24 23 23 22 23 23 22 22 21 21 21 21 21 21 20 20 20 19 18 17 16 15 15 14 13 12 12 11 10 9 8 8 8 8 8 8 9 9 9 9 9 10 10
2 3 2 7 7 6 6 6 6 6 4 4 6 2 4 7 3 2 4 6 5 7 8 4 8 10 4 5 13 23 27 29 30 30 28 28 29 29 28 29 32 35 39 39 37 36 35 35 36 35 34 32 30 28 26 25 25 24 24 24 24 24 23 23 23 23 23 23 22 22 21 20 19 18 17 16 15 14 13 12 11 11 9 9 8 7 8 8 8 8 9 9 9 9 10 10 10
2 4 5 7 5 4 8 8 7 7 4 4 4 1 3 6 3 3 4 4 8 9 9 10 12 13 9 7 11 19 22 23 26 27 26 27 28 29 30 34 37 38 37 36 36 38 37 37 37 37 36 34 32 31 29 28 27 27 27 26 26 26 25 25 25 25 25 24 24 23 21 21 19 18 17 15 14 12 12 11 11 10 9 8 7 7 7 7 7 8 8 8 9 9 10 10 10
2 5 8 7 4 4 9 6 6 6 3 3 4 3 5 3 2 5 7 7 11 7 8 12 13 11 11 12 13 16 16 18 22 24 25 27 29 30 31 33 33 31 31 35 39 41 40 39 38 38 37 36 34 32 31 30 29 29 29 29 28 27 27 27 26 26 25 25 26 24 21 21 20 18 16 14 13 12 11 10 9 8 7 7 7 6 6 7 7 7 7 8 8 9 10 10 10
3 6 6 7 6 6 8 4 4 4 3 6 5 4 2 1 5 6 9 15 15 7 7 11 12 12 14 15 14 14 15 16 20 26 29 31 32 33 34 34 34 34 35 39 41 41 42 41 39 39 38 37 36 34 32 32 32 31 30 30 29 29 28 28 28 27 27 26 26 24 22 21 20 18 16 14 13 12 10 9 8 7 6 5 5 5 5 6 6 7 7 8 8 9 10 10 10
6 6 5 7 8 9 10 6 6 4 7 9 2 2 2 6 7 2 8 18 16 8 5 8 9 9 13 13 14 16 17 19 24 32 35 36 39 41 40 38 38 36 35 38 39 40 42 43 42 40 39 39 37 36 35 34 33 32 32 31 31 30 30 30 29 28 27 27 25 24 22 21 19 18 16 15 13 12 10 8 7 5 4 4 4 4 4 5 6 6 7 8 8 9 9 9 9
6 8 6 5 5 8 9 7 8 7 8 6 1 5 8 9 4 5 17 21 11 8 8 7 4 6 11 13 15 16 15 19 24 29 33 35 38 37 36 35 34 33 36 39 39 41 43 44 43 43 42 41 39 37 37 36 35 34 34 33 33 32 31 31 30 29 28 27 26 25 23 21 20 18 17 16 14 13 10 8 7 5 3 3 3 3 3 4 5 6 7 8 8 8 8 8 9
7 8 5 5 6 8 7 7 9 7 5 3 3 11 11 7 2 9 23 20 9 9 9 9 6 6 10 12 14 15 16 18 21 26 31 33 30 29 32 33 33 36 41 40 40 43 44 44 45 46 45 43 41 40 39 38 37 36 36 35 34 33 32 31 31 30 29 29 27 26 24 21 20 19 18 17 15 13 11 9 7 6 4 2 1 1 2 4 5 6 6 7 7 7 7 8 8
5 5 6 7 8 9 5 7 10 5 4 6 7 14 11 3 1 10 19 9 3 8 9 9 9 10 11 11 12 14 15 20 26 27 25 25 25 29 33 34 36 40 40 39 42 44 43 44 46 47 46 44 43 42 41 40 39 38 37 36 35 34 33 32 32 31 31 30 28 27 25 22 20 19 18 17 15 13 12 10 8 6 4 3 1 1 2 3 4 5 5 6 6 7 7 8 8
2 2 7 9 6 9 8 8 10 3 4 7 10 11 10 2 3 14 20 4 5 6 8 8 8 11 11 11 12 10 13 22 27 23 20 23 29 34 35 38 42 41 39 42 44 42 42 45 47 47 46 45 44 43 42 42 41 40 39 38 37 35 34 33 33 32 31 31 29 27 25 23 22 20 19 18 16 14 13 11 10 8 6 4 3 2 1 2 3 4 5 6 6 7 7 7 8
2 2 6 11 7 11 14 9 7 4 3 5 9 4 9 5 10 19 21 7 1 4 8 9 9 10 10 10 10 9 13 19 19 20 26 32 36 37 39 44 45 42 43 45 41 40 43 45 46 46 46 46 46 45 44 43 43 41 40 40 38 37 36 35 34 33 32 31 29 28 26 24 23 22 21 19 17 15 14 12 11 9 7 6 4 3 1 1 2 3 4 5 6 6 7 7 8
4 2 2 9 7 11 13 3 2 4 4 6 8 2 8 10 16 19 15 8 5 8 11 11 9 9 9 9 9 10 12 13 16 24 33 36 37 38 41 44 42 42 42 38 38 41 44 44 45 45 46 47 47 46 45 44 44 43 42 41 39 38 37 36 35 34 33 31 30 29 27 26 25 23 21 20 18 17 15 14 12 11 9 7 6 4 2 1 2 2 3 4 5 6 8 9 9
4 2 1 3 2 9 10 2 4 2 4 7 8 3 8 14 18 15 8 6 6 9 13 12 10 9 9 8 8 10 11 13 20 30 34 36 37 38 40 40 38 40 39 37 41 44 44 44 45 45 46 47 47 46 46 45 45 44 43 42 40 39 38 36 36 35 34 33 32 30 29 27 26 24 23 21 20 18 17 15 14 12 10 9 7 5 4 3 2 2 3 4 5 6 7 9 11
2 2 4 3 4 8 12 4 6 7 4 4 6 3 8 14 19 14 5 5 8 9 13 12 11 10 9 9 8 10 11 13 20 28 33 35 36 36 38 38 37 40 41 42 44 42 42 44 45 46 46 47 47 47 46 46 45 44 44 43 41 40 38 38 37 36 35 34 33 32 30 29 27 26 24 22 21 20 18 16 15 14 12 10 8 7 5 4 3 3 3 4 5 6 7 9 11
2 3 6 5 5 4 8 8 6 9 4 2 6 5 6 10 14 12 5 5 8 8 12 12 12 12 10 9 8 9 10 11 14 21 31 34 35 37 38 39 40 41 44 44 43 42 43 44 45 46 47 48 48 47 46 45 45 44 44 42 41 40 39 39 38 37 36 36 35 33 32 30 29 27 26 24 22 21 20 18 17 15 13 12 10 8 7 6 5 4 3 4 5 5 7 9 11
3 2 5 6 7 4 4 8 5 4 5 5 8 8 10 13 12 11 8 5 7 7 11 12 11 11 10 9 8 9 10 12 12 17 29 33 34 36 38 40 41 41 43 43 43 44 45 45 46 47 46 47 47 46 45 44 44 43 42 41 41 40 40 39 38 37 37 37 36 35 33 32 30 29 27 26 24 22 21 19 18 16 15 13 12 10 9 7 6 4 4 4 4 5 7 9 12
6 5 5 4 6 6 7 9 4 1 4 7 7 9 14 17 15 14 14 10 6 9 11 10 10 11 11 9 9 10 10 13 15 20 27 28 30 35 37 39 39 40 41 42 43 44 44 45 45 45 45 45 45 44 43 42 41 40 40 40 39 40 40 40 39 38 38 37 37 36 34 33 32 30 29 27 25 24 22 21 20 18 17 15 14 12 10 9 7 6 5 3 3 3 5 8 11
10 7 5 6 7 7 9 12 8 3 6 8 9 13 15 16 17 16 17 15 12 12 11 9 10 11 11 10 10 11 12 14 18 23 24 23 27 32 35 37 38 39 40 40 42 42 43 43 42 43 44 44 43 42 41 40 39 39 38 38 39 41 41 40 40 39 39 39 38 37 36 35 33 32 30 29 27 26 25 23 22 20 18 17 15 14 12 10 8 7 6 4 3 2 3 6 9
8 5 6 9 9 9 11 14 11 5 5 9 12 16 17 16 18 17 15 14 13 14 14 13 12 12 12 13 15 14 14 16 18 21 19 21 26 30 34 36 36 36 36 37 40 42 43 43 43 44 44 44 44 43 43 42 42 40 39 41 42 42 42 41 40 41 40 40 39 38 37 37 35 33 32 31 29 28 26 25 23 22 20 18 16 14 13 11 10 9 7 5 3 1 2 4 8
7 6 8 9 8 12 13 13 13 5 5 9 11 15 18 16 16 16 12 12 15 16 16 17 16 14 12 14 18 17 15 14 15 17 15 17 23 27 31 33 34 35 36 39 42 44 45 44 46 46 45 45 47 47 46 46 46 45 43 44 44 42 42 43 43 43 43 41 41 39 39 38 36 35 33 32 31 29 28 27 25 24 22 19 17 15 14 13 12 11 9 6 4 2 1 3 6
8 6 7 8 7 11 12 11 13 5 4 8 11 13 16 14 14 15 13 13 15 17 16 18 17 13 13 15 17 17 16 16 16 16 13 13 20 25 28 31 35 38 39 41 42 43 44 44 45 45 46 47 48 48 48 47 47 45 43 42 41 40 40 43 43 42 42 42 41 40 39 39 37 36 35 33 32 31 30 29 27 25 23 21 20 18 17 15 14 12 10 8 6 3 2 2 4
7 6 6 8 7 8 9 7 8 5 3 6 9 11 12 10 10 12 15 16 15 16 17 17 14 12 16 17 16 15 17 18 18 17 12 10 15 20 25 29 34 35 34 36 39 40 42 44 45 45 46 48 48 48 48 46 43 41 38 36 37 36 36 38 38 37 40 41 41 40 40 39 38 37 36 35 34 33 31 29 27 26 24 22 21 20 18 17 15 13 12 10 8 6 4 4 2
9 9 8 11 11 12 12 6 6 5 5 5 7 12 10 9 12 13 14 15 14 15 16 15 15 15 16 16 16 17 19 19 18 17 12 8 10 16 24 28 30 31 33 37 41 42 43 44 45 46 46 47 47 47 46 43 40 38 34 29 29 31 30 31 33 36 39 41 42 43 42 41 39 38 38 36 35 34 32 30 28 26 25 23 22 20 19 17 16 14 13 12 10 7 6 5 4
8 8 13 18 16 14 14 10 8 6 6 4 1 9 9 7 12 13 10 10 11 11 12 15 16 15 14 15 17 18 19 18 17 17 13 9 9 14 21 25 27 31 36 40 42 43 43 44 45 45 45 46 46 46 44 43 41 40 37 33 31 31 28 32 40 43 43 44 44 44 43 41 40 40 39 38 37 35 33 31 29 27 26 25 23 21 19 18 17 16 14 13 10 9 7 6 6
9 6 14 18 14 11 12 9 5 3 6 4 3 2 9 5 7 9 10 10 12 9 10 14 14 13 14 14 16 17 16 14 13 14 12 10 10 11 15 23 28 32 36 37 38 40 41 41 44 45 45 45 44 44 44 44 42 42 42 41 39 38 36 40 44 42 41 43 42 41 42 41 41 41 40 39 37 36 34 32 30 28 27 26 24 22 21 20 18 16 15 13 11 10 8 6 6
8 4 9 11 9 9 8 6 5 4 4 4 2 4 8 12 5 10 12 10 10 10 12 15 13 13 14 14 15 17 16 13 10 11 11 11 11 11 15 23 31 33 33 33 35 38 40 40 43 44 43 43 43 44 45 46 45 44 44 42 40 42 42 40 38 35 36 39 39 40 41 42 41 41 40 39 38 36 34 33 31 29 28 27 25 23 22 20 18 17 16 15 13 12 10 8 7
6 3 6 6 6 6 4 4 5 2 4 4 4 6 4 13 5 8 10 9 8 11 15 17 15 14 14 15 17 17 15 13 10 10 12 11 11 14 20 24 29 30 30 33 36 38 39 39 40 42 41 41 42 43 45 47 47 45 44 43 41 42 41 35 31 33 34 36 38 39 40 41 42 41 41 39 38 37 35 34 32 31 30 28 26 24 22 20 19 19 18 17 15 13 11 9 7
3 6 5 4 3 2 4 2 1 2 5 6 6 6 4 11 4 5 3 5 8 12 14 15 14 12 12 14 17 16 11 12 10 10 11 10 11 17 21 21 24 28 30 33 34 35 36 36 38 40 40 40 41 43 45 46 46 44 44 45 43 40 37 32 30 31 33 35 37 39 39 41 42 42 41 40 38 37 36 34 33 33 32 29 27 25 23 22 21 20 18 17 15 14 13 11 8
2 6 5 6 4 5 4 1 4 1 9 6 10 12 8 8 4 4 4 5 8 9 8 10 11 12 13 13 15 14 12 12 10 9 8 8 9 13 16 17 21 25 27 29 31 32 34 36 37 39 40 39 40 42 45 46 46 46 46 46 45 41 37 34 32 32 35 37 38 39 40 41 42 42 42 41 40 38 37 36 35 34 32 30 28 27 25 24 23 21 19 17 16 15 13 11 10
4 4 4 3 4 4 4 4 4 2 9 6 11 13 11 10 6 3 5 5 5 7 9 10 12 13 13 12 12 13 13 13 10 8 7 6 6 8 12 15 19 22 25 28 30 32 34 36 38 38 39 40 41 43 45 46 46 47 47 45 45 43 39 37 37 37 37 39 40 39 39 39 40 41 41 42 42 41 39 38 36 35 33 31 30 28 27 25 23 21 20 19 18 16 15 13 12
4 4 4 1 4 3 2 3 0 4 8 6 8 7 7 11 7 5 10 10 7 9 10 11 12 12 12 12 13 12 11 11 9 7 6 6 7 8 9 12 17 22 26 30 32 34 35 37 38 39 41 42 42 42 44 45 47 49 48 46 45 43 40 40 40 39 39 40 40 39 40 40 40 41 43 45 45 44 42 41 39 37 36 34 32 29 28 25 24 23 22 21 20 18 17 15 13
6 5 6 5 3 3 4 4 3 5 8 5 4 5 5 7 4 10 15 14 12 10 10 12 12 11 11 12 12 9 9 12 9 6 6 6 8 9 9 12 16 22 26 30 32 35 36 36 38 40 41 42 42 43 45 46 48 50 48 47 45 42 42 42 42 40 40 40 40 41 43 43 43 45 47 47 47 46 44 43 41 39 37 35 33 31 28 26 25 24 23 22 21 19 17 15 14
6 5 5 5 6 4 4 4 6 7 6 4 1 4 5 2 2 9 11 9 9 8 9 10 9 10 10 10 11 10 11 12 6 5 6 7 9 9 8 12 16 21 25 28 31 33 34 36 39 40 40 41 44 44 45 46 49 49 47 47 45 44 44 43 42 42 40 40 41 42 43 43 44 46 46 46 46 46 45 44 42 40 39 36 34 32 29 28 26 25 24 23 21 19 17 16 15
3 4 4 4 6 5 4 6 6 4 3 4 3 4 5 3 5 7 7 7 8 7 7 7 9 12 11 11 12 13 13 9 3 2 6 7 7 8 8 11 15 18 22 26 29 32 35 37 39 41 41 41 42 43 45 48 48 46 45 47 46 45 43 42 43 43 42 41 41 41 42 43 43 43 43 44 44 45 45 45 43 42 40 38 35 33 31 29 28 27 25 24 22 20 19 17 15
1 3 3 4 4 6 4 6 3 1 4 6 3 5 6 5 7 7 4 6 7 7 8 9 12 13 11 12 13 13 12 8 3 4 7 6 6 7 9 12 16 20 24 28 32 37 39 39 38 40 39 37 39 43 45 46 45 44 45 47 46 45 45 45 45 44 42 40 39 40 41 41 42 42 42 43 43 44 44 44 44 42 40 39 36 33 32 30 29 28 27 25 23 21 19 17 16
5 3 5 1 2 2 3 2 2 2 8 6 4 10 8 4 7 6 4 5 7 9 10 10 10 10 10 12 13 12 12 8 5 7 8 7 8 8 9 14 20 24 28 32 36 38 38 37 37 38 37 39 43 45 46 45 43 43 45 45 46 46 47 46 45 42 40 38 39 40 40 40 42 42 41 41 42 43 43 44 43 42 41 39 37 34 32 31 30 29 27 25 23 21 19 18 17
4 3 3 3 1 3 2 3 3 6 9 6 8 15 10 5 7 7 5 7 9 10 9 8 9 10 11 12 14 13 10 8 7 7 8 8 9 9 10 15 20 25 28 31 33 33 34 35 36 36 38 42 43 42 42 42 42 43 44 45 45 46 45 44 43 40 39 39 40 41 40 41 41 41 41 41 42 42 43 43 43 42 41 39 37 35 33 32 31 29 27 26 23 21 20 19 18
0 0 0 2 3 4 3 3 3 5 9 7 9 12 9 6 6 6 9 9 8 10 9 8 11 12 11 11 12 12 9 8 8 7 8 9 10 10 13 17 21 24 25 26 27 30 34 36 35 36 38 39 38 39 41 42 44 45 44 43 43 44 44 43 41 40 40 41 42 41 41 41 40 40 41 42 42 43 44 44 44 43 42 40 37 36 34 33 32 30 28 27 25 23 21 20 19
3 3 3 3 3 1 1 2 1 3 7 7 8 9 9 8 4 7 12 10 9 11 10 10 10 9 10 10 10 11 9 7 8 8 10 11 10 9 12 16 18 18 20 22 26 30 33 33 35 38 38 36 37 40 42 43 44 44 43 43 43 43 42 41 40 40 41 42 42 42 42 41 41 41 42 42 43 44 44 44 44 43 43 41 39 38 36 35 33 31 29 27 25 23 21 20 18
7 7 8 8 7 4 4 6 5 5 7 7 9 8 8 10 8 9 12 9 8 9 8 8 8 8 9 9 9 10 8 8 10 10 11 11 9 8 8 11 13 16 18 21 25 28 29 32 36 38 36 37 40 42 44 45 44 43 43 44 43 41 40 40 40 40 41 42 42 43 43 42 42 42 43 43 44 44 44 44 44 44 43 41 40 39 38 36 34 32 30 28 25 24 22 21 20
Wind_Direction
168 137 119 107 1 30 28 68 70 317 79 280 267 209 261 230 202 171 183 247 255 273 246 312 61 92 112 134 160 166 152 165 169 145 215 196 144 159 168 166 170 168 166 169 171 169 162 158 161 161 162 159 156 156 150 148 146 150 149 144 144 140 136 133 131 131 129 126 128 128 124 122 114 107 114 130 131 130 138 132 124 107 89 72 67 68 73 72 61 23 341 350 359 7 9 11 13
197 116 65 312 4 49 234 76 92 324 40 316 278 180 252 296 214 189 196 210 213 208 199 123 78 63 65 87 117 126 145 227 164 149 215 151 145 166 172 174 175 172 172 172 175 176 171 166 162 162 166 162 157 158 158 160 155 154 157 152 152 151 142 134 134 138 134 129 133 135 130 122 109 103 113 140 153 168 181 178 185 158 109 81 70 67 70 72 62 36 358 353 356 351 351 349 343
175 117 50 55 22 44 64 44 89 34 48 282 276 241 263 294 228 216 214 217 219 174 138 153 93 73 78 53 104 125 195 258 147 133 127 162 165 172 172 178 176 177 178 175 177 179 178 173 166 160 162 161 157 158 160 163 163 159 158 154 152 153 148 142 138 139 139 138 135 130 125 116 109 110 127 179 187 191 189 185 176 163 145 110 84 73 69 67 62 46 19 2 5 359 354 351 343
128 110 25 58 48 23 65 46 149 127 181 239 269 269 252 219 224 232 235 232 232 172 145 165 107 120 112 170 193 107 215 246 188 161 156 187 182 169 169 175 177 180 180 178 178 178 179 175 173 169 166 165 159 156 156 158 163 162 159 158 156 154 152 150 146 145 144 141 133 131 138 140 143 155 174 182 175 173 167 168 163 159 146 126 105 85 75 69 56 45 35 14 9 8 4 3 358
104 69 355 48 82 28 97 91 126 130 209 199 224 269 246 218 219 224 246 261 253 226 203 153 126 245 113 197 179 142 208 222 197 179 174 188 178 164 167 175 177 181 181 180 179 178 179 174 176 176 175 174 165 155 153 152 156 158 157 158 155 151 149 147 144 142 140 142 147 158 172 178 179 182 182 176 164 150 143 145 147 150 146 137 118 93 75 64 48 32 28 18 11 11 11 10 8
50 66 8 42 95 134 115 202 193 210 224 174 199 268 258 225 213 210 247 284 276 244 201 173 155 167 235 254 198 209 198 121 168 190 195 179 169 164 169 175 177 180 182 181 182 181 178 175 175 175 174 171 164 157 154 152 154 154 154 153 151 149 147 146 145 147 150 157 167 172 172 172 173 174 173 169 160 147 142 138 135 135 136 137 125 99 68 56 46 39 33 32 29 27 30 28 24
28 45 14 54 36 45 118 212 214 235 236 181 195 255 258 229 200 189 209 238 289 299 206 214 152 120 206 257 202 225 217 187 160 205 202 171 165 166 172 177 176 179 181 183 185 184 181 178 175 173 170 165 162 159 157 155 156 155 155 155 155 156 157 159 161 164 166 168 169 166 165 165 165 167 169 165 156 147 139 128 119 113 110 108 101 87 71 63 55 51 47 44 43 44 44 42 41
31 40 26 93 51 12 114 237 236 218 242 218 213 239 243 212 180 176 198 194 203 253 208 235 185 121 241 158 183 244 219 202 205 228 183 166 166 169 176 180 177 178 182 186 186 187 184 177 173 172 170 165 162 161 163 165 166 167 168 170 169 171 172 172 172 170 169 168 166 165 164 163 163 164 161 154 145 136 128 120 111 105 101 96 92 85 74 67 59 53 49 46 44 46 46 45 45
31 48 52 99 133 319 350 278 263 234 248 252 247 246 240 193 172 175 193 234 262 199 214 220 194 180 222 169 240 279 248 218 218 186 171 168 170 172 179 183 182 180 181 187 188 189 184 175 173 174 171 166 164 168 174 175 176 176 175 176 175 176 175 175 174 173 172 171 170 167 164 160 158 154 148 142 135 129 122 116 109 103 99 94 89 85 77 70 61 54 50 45 43 43 44 44 43
33 35 110 106 120 269 297 275 255 259 248 250 260 248 225 169 173 196 191 232 227 163 226 224 178 191 169 179 237 284 234 213 183 168 171 171 172 176 181 185 187 183 183 187 189 188 182 177 176 174 171 169 172 176 179 178 177 177 176 178 177 178 178 179 178 178 177 175 171 164 159 153 149 145 141 136 132 127 122 116 112 106 102 98 94 91 85 79 69 63 59 53 50 47 46 44 43
34 349 96 92 76 222 255 255 257 262 269 293 290 252 201 161 160 219 215 240 222 153 208 165 216 195 150 227 244 269 196 187 177 171 171 172 174 179 183 186 190 189 188 186 187 186 181 180 179 178 176 177 181 181 181 181 181 180 181 182 182 184 183 184 181 179 176 171 165 159 154 149 146 143 140 137 133 130 126 122 118 113 109 105 101 98 93 89 83 77 72 67 64 60 57 53 50
82 326 65 108 174 210 218 236 265 271 293 305 281 257 168 148 146 211 213 226 210 176 219 189 192 162 143 276 266 309 185 181 182 175 172 173 176 181 185 186 188 192 192 188 186 186 184 184 184 184 183 183 184 184 186 185 186 186 186 186 186 187 185 183 179 174 170 164 160 156 154 150 148 146 143 141 137 133 130 125 122 118 115 111 107 105 101 99 95 91 86 80 78 77 74 66 64
123 153 85 146 193 188 209 224 272 298 308 271 239 256 135 146 191 211 192 208 179 166 236 208 162 143 180 269 278 313 200 187 182 176 173 173 177 182 187 187 188 193 194 192 189 188 188 188 187 187 187 187 187 188 190 189 189 188 187 188 187 186 182 179 175 170 167 163 160 158 156 153 151 150 148 145 142 138 134 130 127 123 120 117 115 111 107 105 103 101 97 92 90 90 89 83 80
147 151 115 206 242 178 207 238 278 284 282 257 252 276 143 169 213 192 155 193 211 186 234 198 143 142 206 283 284 270 211 192 180 176 173 173 180 184 188 189 191 194 197 199 196 194 193 192 192 191 191 191 192 191 192 191 189 189 189 189 186 184 180 176 174 171 168 165 163 161 159 157 155 153 151 149 147 144 141 139 135 131 129 126 123 118 115 112 110 108 103 98 94 91 92 92 91
169 121 100 149 304 306 219 226 236 202 250 253 255 285 197 256 159 145 171 195 235 216 175 170 154 175 196 185 229 244 202 188 178 176 174 176 181 183 188 190 193 197 200 203 202 201 197 197 197 195 195 194 196 195 193 191 190 192 189 188 186 182 180 177 175 172 170 168 166 163 162 159 157 156 155 154 153 152 149 147 143 139 135 131 129 124 121 116 112 109 103 99 92 89 87 88 87
131 102 77 345 261 279 227 214 196 181 250 242 260 43 141 281 177 155 216 176 256 254 136 190 192 192 174 179 243 246 187 179 174 174 174 177 182 183 188 191 196 200 203 206 205 204 202 202 201 199 199 197 198 196 194 192 193 194 191 189 186 183 181 179 177 176 173 171 168 165 164 162 160 159 159 158 158 155 151 147 140 135 131 127 124 120 116 110 106 100 95 93 87 84 80 79 79
63 87 86 297 223 221 214 209 212 203 261 265 293 289 181 281 292 194 254 122 219 259 224 227 218 98 174 218 284 184 167 169 170 171 172 175 178 179 185 191 195 200 204 208 208 207 205 204 203 201 201 200 200 197 196 196 196 195 192 191 187 186 184 182 181 179 177 174 171 169 167 165 163 162 160 159 156 151 145 140 133 129 124 119 115 112 108 103 99 94 88 85 79 76 73 71 71
63 101 160 247 204 211 197 197 207 174 271 265 264 223 187 251 278 244 326 320 277 263 268 265 281 24 42 290 144 150 158 164 168 169 171 173 176 179 186 191 194 200 203 207 210 209 207 206 205 204 203 202 200 199 199 198 199 197 194 193 190 189 187 186 185 182 181 177 174 173 170 168 164 162 159 156 152 146 141 135 129 126 120 113 111 108 104 99 95 89 83 78 75 72 68 66 64
132 136 175 234 205 218 205 203 227 197 257 251 260 245 187 224 239 117 244 264 275 243 264 278 267 282 37 95 136 149 157 163 169 172 175 178 182 186 190 193 196 201 204 207 210 209 208 207 206 206 206 204 202 201 200 201 201 198 196 194 192 191 190 189 188 186 183 180 178 175 173 169 164 161 158 155 151 147 142 135 129 125 119 113 108 105 100 94 88 82 77 74 73 71 66 63 60
182 147 207 244 215 236 248 235 242 229 226 235 267 251 185 234 221 137 222 259 259 221 237 220 238 243 198 137 146 154 160 167 175 178 183 187 191 193 193 195 199 204 206 208 208 207 208 208 208 208 208 206 204 202 201 202 202 199 197 196 195 193 192 192 191 189 185 182 180 178 174 167 164 162 160 156 153 147 140 134 130 125 119 111 104 98 92 87 80 75 72 70 68 67 65 63 59
183 160 206 238 198 238 256 238 237 230 207 204 236 264 265 252 194 189 186 261 267 229 226 209 221 228 188 169 171 166 167 174 181 185 190 194 198 201 201 201 203 207 208 208 207 207 208 208 209 208 209 209 206 203 201 203 201 200 198 197 197 195 194 193 192 190 187 184 182 181 174 165 166 165 161 156 150 144 138 135 131 124 118 109 99 92 86 80 76 72 67 64 62 62 62 58 54
171 217 221 236 186 237 259 239 234 222 199 226 242 264 266 241 179 213 183 227 253 221 215 212 220 221 181 177 180 174 177 181 186 193 196 199 202 205 208 209 208 209 209 209 209 209 209 208 209 208 209 209 208 205 203 204 202 201 200 199 198 197 196 194 193 191 189 186 184 182 173 167 169 165 159 155 148 146 144 139 131 123 116 104 93 84 77 74 69 66 63 60 59 56 54 50 45
222 253 237 241 217 236 263 258 248 220 217 251 249 246 242 300 270 233 195 229 244 217 190 201 220 217 180 171 171 177 187 189 194 197 199 200 203 206 208 209 209 209 209 211 211 210 209 208 208 209 208 208 208 206 204 204 204 203 202 201 200 198 196 195 194 192 190 190 185 181 176 172 170 165 160 158 154 153 152 144 135 125 114 98 86 69 60 61 56 55 54 50 48 44 44 41 38
218 257 258 249 225 230 254 263 273 260 239 245 255 301 243 244 268 287 230 239 242 239 214 202 221 202 166 162 175 187 192 194 201 203 202 203 205 208 208 208 209 209 210 212 211 209 210 209 208 209 209 208 208 206 205 205 205 204 203 202 202 200 198 196 196 192 191 192 186 182 180 176 171 167 164 164 162 160 161 154 141 133 123 99 78 62 49 46 41 41 37 33 32 31 35 37 35
214 239 255 258 236 239 256 265 267 263 249 242 275 275 247 233 267 313 263 257 248 232 232 223 201 151 161 177 187 193 197 202 207 208 209 211 211 211 211 211 210 210 213 213 211 210 211 210 208 209 210 209 208 206 205 205 206 204 203 204 203 202 200 197 196 193 191 192 188 186 184 179 175 172 171 171 170 169 169 165 154 151 143 112 84 60 34 26 25 23 22 24 23 21 28 32 33
219 224 251 267 272 275 279 277 264 255 244 188 217 263 259 244 279 283 265 264 249 216 223 223 191 175 188 192 193 195 202 206 210 211 213 216 215 215 215 213 211 213 216 215 212 212 211 209 209 210 210 210 209 207 206 205 206 205 204 205 204 203 201 198 197 194 193 192 190 189 186 183 180 178 178 177 176 177 175 172 166 162 161 140 111 29 13 9 13 16 18 22 20 17 16 21 27
215 222 266 258 272 285 259 260 267 263 246 189 207 262 272 269 202 265 268 269 191 204 226 226 205 217 213 202 204 201 205 211 211 211 213 215 213 217 217 213 213 216 216 215 215 213 210 209 210 211 210 210 209 208 207 206 206 206 205 206 205 204 202 199 197 196 194 194 193 191 188 185 185 185 185 184 182 183 181 179 175 175 185 182 210 301 352 357 4 11 12 16 16 12 8 12 16
242 271 301 278 293 295 256 250 266 260 262 202 187 259 286 320 180 246 260 268 111 196 235 239 217 231 226 213 214 204 213 218 213 210 209 210 212 215 215 213 215 215 215 217 217 213 210 210 210 211 210 210 210 209 208 207 207 207 206 206 206 206 203 200 198 198 196 196 196 194 189 187 189 190 190 190 188 188 188 186 185 189 198 200 217 249 318 343 356 359 3 9 7 7 4 3 6
284 29 317 292 331 305 272 262 250 193 231 181 145 275 290 241 222 241 254 263 354 258 256 251 234 238 235 224 220 212 222 222 213 212 215 215 216 215 215 218 215 213 216 218 216 212 212 212 210 210 209 209 210 210 209 208 208 207 207 208 208 207 205 202 201 200 199 198 198 197 193 191 192 194 194 193 192 193 194 193 194 195 199 203 207 219 255 314 347 351 357 360 359 0 351 349 358
298 28 299 291 338 299 274 256 202 193 203 163 131 271 275 254 245 246 256 266 273 274 266 255 244 246 241 231 227 226 227 220 212 218 220 220 220 218 220 222 217 214 216 215 213 214 214 212 210 209 208 210 211 211 210 210 209 208 208 209 209 208 206 204 203 202 202 200 200 199 197 195 195 196 197 196 195 197 198 198 198 197 199 201 202 212 223 260 312 329 344 347 349 350 344 341 344
301 309 257 289 303 273 281 95 125 226 223 161 138 212 255 267 266 255 251 239 224 250 263 261 251 247 246 239 230 236 233 221 221 224 224 223 223 221 223 224 219 216 215 212 214 215 214 211 209 209 209 210 210 210 211 211 210 209 209 209 209 209 208 207 206 204 204 202 202 201 199 198 198 198 199 200 200 200 201 201 199 198 200 200 203 210 215 238 265 295 322 335 340 343 342 337 337
345 260 270 281 208 262 295 295 175 216 255 147 146 212 250 263 270 268 250 210 202 226 254 262 262 254 250 246 234 240 244 233 230 232 232 228 225 224 223 224 220 216 215 214 215 213 211 210 209 208 208 209 210 210 211 211 211 210 209 210 210 210 209 210 210 207 205 205 205 203 201 201 200 201 201 202 203 203 204 203 201 200 200 201 204 207 214 229 244 274 297 315 331 335 334 333 332
330 212 246 260 233 266 305 298 226 206 214 181 202 222 253 259 267 277 275 216 200 222 251 257 263 263 253 249 239 240 249 248 240 238 236 230 227 225 223 223 221 219 218 215 213 209 209 209 208 208 208 209 209 209 210 210 210 210 210 210 210 211 210 212 212 209 208 206 207 206 204 203 202 203 203 204 205 205 205 204 203 201 202 203 204 206 212 221 234 255 276 304 321 331 330 328 328
283 225 237 251 243 244 282 294 288 189 177 219 230 226 242 252 261 275 275 221 181 212 249 253 257 262 258 253 248 244 245 247 246 240 237 231 226 225 223 224 223 221 219 215 212 211 209 208 207 208 208 208 207 207 207 209 210 210 210 210 211 211 212 213 213 212 211 209 208 208 207 206 204 204 205 205 205 205 206 205 205 204 203 204 203 205 208 215 227 241 258 288 307 326 329 326 328
235 223 235 257 246 237 253 270 280 162 221 228 235 240 245 255 262 269 270 255 229 234 243 250 257 261 262 259 253 249 245 246 247 243 241 233 225 224 223 223 223 220 218 215 212 211 208 207 206 205 205 205 205 205 205 207 208 208 209 209 211 211 212 213 213 214 214 212 210 209 209 209 207 205 206 207 205 206 206 206 207 205 205 204 203 204 206 213 221 230 244 260 285 319 331 328 330
228 225 232 252 255 248 248 258 251 217 257 243 234 249 248 253 258 257 263 264 260 257 254 254 256 260 262 260 255 251 249 249 249 248 244 235 226 223 222 221 221 220 217 213 209 207 206 203 202 202 203 203 201 200 201 202 203 205 206 206 208 211 211 212 214 215 216 216 213 211 211 211 210 207 207 208 208 208 207 207 207 206 206 205 204 205 205 211 217 224 232 235 258 298 331 327 334
248 254 256 255 259 266 257 265 265 198 229 247 231 248 253 251 255 252 255 264 265 263 262 258 251 253 257 256 258 254 248 250 255 258 249 232 227 223 222 219 217 217 214 210 205 204 204 201 200 200 200 200 198 197 198 199 200 199 200 203 206 209 209 210 213 216 217 218 217 214 213 213 212 209 208 209 209 209 208 208 207 206 206 205 205 206 204 208 212 218 222 222 241 261 327 335 344
256 251 261 265 256 265 261 265 274 216 195 256 242 251 258 251 255 258 252 256 261 258 256 258 254 249 253 253 257 256 254 256 260 263 250 227 224 220 218 215 210 210 209 206 205 204 202 201 200 199 197 198 198 199 198 200 201 201 201 204 206 207 208 209 212 215 217 218 218 217 215 214 213 211 210 210 210 209 208 208 209 208 207 204 202 203 204 207 208 212 214 214 219 231 355 2 356
242 242 260 268 256 273 270 254 268 248 175 260 258 255 260 255 256 260 257 248 251 254 251 255 255 250 253 251 252 256 257 261 260 259 249 223 218 216 213 210 209 210 208 205 204 202 199 199 199 198 197 197 199 200 200 201 203 203 204 205 205 205 208 211 213 215 216 218 218 218 217 215 214 213 211 211 211 210 210 210 210 209 208 205 204 204 204 204 207 209 211 212 206 187 129 78 12
223 224 246 260 250 265 268 244 265 264 193 260 273 267 264 262 262 258 257 252 250 257 255 256 257 248 249 250 253 257 256 258 257 257 252 219 214 214 209 209 209 208 206 202 201 199 197 198 198 197 198 198 199 200 201 202 202 202 204 206 206 206 209 212 213 216 217 218 218 218 218 216 215 214 212 212 212 212 211 211 211 209 208 208 209 209 206 205 207 209 210 213 208 191 163 142 97
223 209 225 250 247 243 252 270 309 299 267 270 280 283 271 237 245 251 252 254 251 255 256 258 257 248 249 255 256 255 253 255 257 259 253 215 209 213 210 210 207 203 203 201 200 198 198 198 198 197 198 198 199 200 200 199 197 197 198 200 201 204 209 208 210 215 216 216 217 217 217 216 216 215 214 213 213 213 212 212 211 211 209 209 211 211 210 207 206 210 212 215 216 208 189 164 155
251 209 215 237 244 246 256 281 318 312 289 289 259 290 284 200 213 240 248 250 248 249 251 253 254 252 251 255 256 253 251 253 255 260 255 224 211 214 211 208 203 202 205 204 201 199 198 198 197 197 198 199 199 199 197 196 195 194 193 192 193 197 202 206 210 213 212 213 215 216 216 216 216 216 215 214 214 213 213 212 211 211 211 210 211 210 209 207 207 209 211 213 216 216 207 182 168
273 222 211 230 241 249 255 267 291 262 262 283 120 263 285 248 193 221 235 239 245 251 254 251 251 253 248 246 254 256 253 251 250 255 251 229 215 209 209 207 203 205 206 204 201 199 198 197 196 197 198 198 199 198 196 195 195 195 196 197 198 198 203 210 214 214 212 212 213 215 215 215 216 217 217 215 214 213 212 212 211 211 212 212 211 209 208 209 208 208 210 212 214 216 216 200 181
266 214 190 212 225 237 232 225 233 235 278 292 156 151 274 280 231 200 215 224 242 253 254 254 248 247 249 247 250 253 254 251 242 244 243 229 216 206 208 208 205 206 205 199 198 197 197 197 196 197 198 198 198 197 196 197 197 198 200 202 204 206 210 214 216 214 214 214 213 214 215 215 217 218 218 217 214 214 212 211 211 211 213 213 212 211 210 210 206 205 208 208 212 216 218 215 197
252 144 155 174 193 217 180 180 222 280 341 285 200 139 259 280 247 181 208 214 230 242 240 246 245 242 249 251 252 252 254 256 240 233 236 222 210 211 211 209 206 204 201 197 197 197 196 197 196 196 198 198 198 198 198 199 201 201 202 204 207 212 214 216 217 215 215 214 212 214 214 215 216 217 218 219 217 215 212 211 211 212 213 213 212 212 210 208 207 208 209 209 213 215 215 220 215
228 110 97 73 81 71 88 138 149 26 305 257 196 161 231 280 272 142 180 203 222 234 233 243 248 249 252 253 260 261 259 261 245 234 238 221 213 216 211 205 202 201 199 198 196 194 194 194 194 196 198 198 198 199 200 201 202 203 205 207 210 213 213 214 216 215 213 212 211 212 212 213 215 215 216 218 218 216 214 213 212 213 214 213 213 211 209 208 209 210 211 212 213 213 214 218 221
128 95 57 30 19 31 52 31 68 7 279 237 185 184 198 270 288 141 177 212 222 226 230 252 260 260 258 252 261 265 259 258 247 234 241 228 219 214 202 196 195 195 196 194 193 192 192 193 194 197 198 199 200 201 202 203 204 205 208 210 212 213 211 210 212 211 210 209 209 210 211 212 213 214 214 215 217 217 216 214 214 215 215 214 214 213 211 211 210 209 209 210 210 212 215 216 219
107 98 76 28 331 9 24 358 59 227 265 224 188 189 191 234 256 196 236 262 245 221 220 238 244 249 256 253 254 256 253 255 249 233 227 212 199 193 190 192 188 186 188 189 190 191 191 194 195 196 199 200 202 202 203 205 205 208 211 213 214 214 212 211 212 211 209 208 209 208 208 210 211 212 213 213 215 216 216 215 214 214 214 214 214 214 213 212 211 209 208 208 210 211 213 214 218
108 114 131 181 295 328 342 311 143 221 257 238 192 182 212 241 245 250 272 281 254 222 218 228 231 238 251 257 256 254 258 262 251 227 211 198 192 190 191 189 182 183 187 188 189 190 192 194 195 196 200 201 202 203 205 206 208 211 213 214 216 216 215 215 216 215 213 211 209 207 206 207 207 208 210 212 214 215 215 215 214 214 214 214 214 214 213 211 209 209 208 209 212 212 213 216 220
162 153 159 177 217 244 247 256 266 259 267 262 180 165 245 278 254 228 242 254 246 225 222 228 227 234 246 255 264 273 279 274 253 207 200 208 204 200 198 191 186 188 189 188 189 191 192 194 196 199 202 202 202 205 206 208 211 214 214 215 217 216 217 218 218 218 217 214 211 209 209 208 208 209 210 212 214 214 214 216 215 215 214 214 214 213 212 211 210 210 211 212 213 214 214 216 220
188 161 146 185 193 188 207 229 253 265 282 299 196 175 217 264 257 224 223 251 264 240 238 245 244 253 261 267 277 280 271 269 255 184 207 220 207 203 203 197 195 192 189 190 191 192 193 196 199 201 202 202 203 205 207 209 213 215 215 216 217 217 218 219 220 221 219 218 215 212 212 212 211 212 213 213 214 214 215 216 216 215 215 214 214 213 211 210 210 211 212 213 214 213 213 216 220
243 123 118 223 209 182 226 254 246 252 302 293 237 221 230 228 262 258 245 263 274 270 281 289 268 258 257 262 266 263 260 273 313 247 245 241 214 206 205 199 198 194 191 193 194 194 197 199 201 202 204 204 205 206 208 212 214 215 215 217 218 218 218 219 221 221 220 220 218 215 215 215 215 215 214 214 214 215 215 215 215 215 215 214 214 213 212 210 210 211 211 212 212 213 214 217 221
217 121 184 230 170 158 226 275 300 35 268 265 231 246 280 308 286 273 250 250 263 279 277 261 255 253 252 256 257 258 265 282 307 261 257 253 229 217 210 200 196 193 193 197 199 200 202 202 202 204 205 205 207 210 212 214 215 215 217 218 218 218 218 219 220 221 220 219 219 218 217 217 217 217 216 215 215 215 215 215 214 215 215 214 214 212 212 212 211 212 212 214 214 213 216 219 222
128 172 224 215 71 129 162 238 302 271 253 264 266 264 278 304 284 299 356 316 281 268 259 259 269 271 264 262 259 260 268 274 259 242 244 242 226 216 212 207 203 200 199 201 203 204 205 205 205 205 204 205 209 212 214 215 215 216 218 218 218 219 219 220 221 220 219 218 219 219 218 218 218 217 216 216 215 215 215 214 214 214 214 213 213 212 212 211 211 212 214 215 216 215 215 218 222
139 194 209 112 187 244 160 184 220 236 247 255 266 271 272 236 248 281 293 276 269 265 269 280 273 258 253 257 260 263 268 276 271 252 245 237 223 215 210 208 208 207 206 207 206 205 206 209 209 209 209 210 212 213 214 216 216 218 220 220 220 220 220 221 220 220 219 218 219 219 217 218 218 217 216 215 215 214 214 213 213 213 213 212 212 211 211 210 211 212 213 214 214 214 215 218 222
143 230 318 117 191 201 189 199 178 221 248 254 256 269 274 242 223 241 244 232 235 255 265 260 248 241 243 247 256 264 262 264 268 262 257 246 232 222 211 208 208 208 210 210 208 206 207 209 210 213 215 214 214 214 215 216 217 219 220 221 221 221 220 221 219 218 218 218 219 218 218 218 217 217 216 215 215 215 214 213 212 212 212 211 210 210 210 210 210 212 213 214 213 212 215 219 222
193 208 228 227 221 200 244 247 150 209 244 249 250 254 267 269 224 218 245 235 224 240 244 245 247 245 248 246 251 262 264 262 260 258 259 254 246 236 220 214 211 210 213 211 209 209 209 209 211 214 216 215 215 216 217 218 218 218 219 220 221 221 220 220 219 218 219 219 219 218 219 218 217 217 216 215 215 215 215 213 212 211 211 210 209 209 209 209 210 211 213 214 214 213 216 219 221
185 196 209 213 218 228 268 256 219 215 233 237 246 246 255 271 260 239 250 245 232 232 225 239 251 244 251 256 253 257 262 260 255 252 256 255 252 247 233 220 210 209 214 213 211 212 210 211 213 215 216 216 218 218 218 219 218 217 219 220 220 219 218 218 218 218 219 219 218 218 218 217 216 217 216 215 214 214 214 213 211 210 209 209 209 209 208 208 209 211 212 213 213 213 215 218 220